Date String (YYYY-MM-DD hh:mm:ss) UTC,Instrument flags,Ambient pressure (hPa),Sample flow (lpm),Bypass flow (lpm),Sample temperature (°C),Ambient temperature (°C),ASC tube jacket temperature (°C),LED temperature (°C),Box temperature (°C),Sample RH (%),Span deviation,Mass concentration (μg/m³),Mass concentration (μg/m³),Mass concentration (μg/m³)
DateTimeUTC,F1_M11,P_M11,Q1_M11,Q2_M11,T1_M11,T2_M11,T3_M11,T4_M11,T5_M11,U1_M11,ZSPAN_M11,X2_M11,X0_M11,X1_M11
2021-10-19 22:00:00,,0823.1,5.00,0.00,29.6,28.9,00.0,38.8,31.3,14.1,0000.0,0002.43,0014.48,0000.46
2021-10-19 22:01:00,,0823.2,5.00,0.00,29.6,28.9,00.0,38.8,31.3,14.1,0000.0,0002.47,0015.05,0000.46
2021-10-19 22:02:00,,0823.2,4.99,0.00,29.6,28.9,00.0,38.8,31.3,14.1,0000.0,0002.44,0015.16,0000.45
2021-10-19 22:03:00,,0823.2,5.01,0.00,29.6,28.9,00.0,38.8,31.3,14.1,0000.0,0002.43,0014.40,0000.45
2021-10-19 22:04:00,,0823.3,5.00,0.00,29.6,28.9,00.0,38.8,31.3,14.1,0000.0,0002.35,0014.38,0000.44
2021-10-19 22:05:00,,0823.3,5.00,0.00,29.6,28.9,00.0,38.8,31.3,14.1,0000.0,0002.35,0013.38,0000.43
2021-10-19 22:06:00,,0823.4,5.01,0.00,29.6,28.9,00.0,38.8,31.3,14.2,0000.0,0002.38,0013.74,0000.44
2021-10-19 22:07:00,,0823.4,5.00,0.00,29.7,28.9,00.0,38.8,31.3,14.2,0000.0,0002.28,0013.38,0000.44
2021-10-19 22:08:00,,0823.4,5.01,0.00,29.7,28.9,00.0,38.8,31.4,14.2,0000.0,0002.24,0013.26,0000.42
2021-10-19 22:09:00,,0823.3,4.99,0.00,29.7,28.9,00.0,38.8,31.4,14.2,0000.0,0002.17,0012.36,0000.41
2021-10-19 22:10:00,,0823.4,5.00,0.00,29.7,29.0,00.0,38.8,31.4,14.2,0000.0,0002.05,0012.17,0000.42
2021-10-19 22:11:00,,0823.4,5.01,0.00,29.7,28.9,00.0,38.8,31.4,14.2,0000.0,0001.98,0012.41,0000.43
2021-10-19 22:12:00,,0823.4,4.99,0.00,29.7,29.0,00.0,38.8,31.4,14.1,0000.0,0001.89,0011.93,0000.44
2021-10-19 22:13:00,,0823.5,5.01,0.00,29.7,29.0,00.0,38.8,31.4,14.1,0000.0,0001.80,0010.50,0000.44
2021-10-19 22:14:00,,0823.5,5.00,0.00,29.7,29.0,00.0,38.8,31.4,14.1,0000.0,0001.75,0010.18,0000.45
2021-10-19 22:15:00,,0823.5,4.99,0.00,29.7,29.0,00.0,38.8,31.4,14.0,0000.0,0001.69,0011.23,0000.44
2021-10-19 22:16:00,,0823.5,5.00,0.00,29.7,29.0,00.0,38.8,31.4,14.0,0000.0,0001.62,0011.99,0000.44
2021-10-19 22:17:00,,0823.4,5.00,0.00,29.7,29.0,00.0,38.8,31.4,14.1,0000.0,0001.52,0011.41,0000.43
2021-10-19 22:18:00,,0823.4,4.99,0.00,29.7,29.0,00.0,38.8,31.4,14.1,0000.0,0001.64,0011.58,0000.45
2021-10-19 22:19:00,,0823.5,5.00,0.00,29.7,29.0,00.0,38.8,31.4,14.1,0000.0,0001.66,0012.71,0000.45
2021-10-19 22:20:00,,0823.5,5.01,0.00,29.7,28.9,00.0,38.8,31.4,14.1,0000.0,0001.62,0012.64,0000.47
2021-10-19 22:21:00,,0823.6,4.99,0.00,29.7,28.9,00.0,38.8,31.4,14.1,0000.0,0001.60,0012.18,0000.47
2021-10-19 22:22:00,,0823.6,5.00,0.00,29.7,28.9,00.0,38.8,31.4,14.1,0000.0,0001.61,0012.36,0000.47
2021-10-19 22:23:00,,0823.6,5.00,0.00,29.7,28.9,00.0,38.8,31.4,14.0,0000.0,0001.61,0012.19,0000.47
2021-10-19 22:24:00,,0823.6,5.01,0.00,29.7,28.9,00.0,38.8,31.4,14.0,0000.0,0001.67,0012.26,0000.48
2021-10-19 22:25:00,,0823.6,5.00,0.00,29.7,28.9,00.0,38.8,31.4,14.0,0000.0,0001.66,0012.10,0000.48
2021-10-19 22:26:00,,0823.7,4.99,0.00,29.7,28.9,00.0,38.8,31.4,14.0,0000.0,0001.67,0011.54,0000.49
2021-10-19 22:27:00,,0823.7,5.00,0.00,29.7,28.9,00.0,38.8,31.4,14.0,0000.0,0001.69,0010.84,0000.50
2021-10-19 22:28:00,,0823.7,5.00,0.00,29.7,28.9,00.0,38.8,31.4,13.9,0000.0,0001.77,0010.73,0000.51
2021-10-19 22:29:00,,0823.7,5.00,0.00,29.7,28.9,00.0,38.8,31.4,13.9,0000.0,0001.77,0010.22,0000.52
2021-10-19 22:30:00,,0823.7,5.01,0.00,29.7,28.9,00.0,38.8,31.4,13.9,0000.0,0001.77,0009.33,0000.52
2021-10-19 22:31:00,,0823.7,5.00,0.00,29.7,29.0,00.0,38.8,31.4,13.9,0000.0,0001.76,0009.95,0000.53
2021-10-19 22:32:00,,0823.7,4.99,0.00,29.7,29.0,00.0,38.8,31.4,13.9,0000.0,0001.73,0009.96,0000.53
2021-10-19 22:33:00,,0823.7,5.01,0.00,29.7,29.0,00.0,38.8,31.4,13.9,0000.0,0001.73,0009.71,0000.53
2021-10-19 22:34:00,,0823.7,5.00,0.00,29.7,29.0,00.0,38.8,31.4,13.9,0000.0,0001.75,0009.66,0000.53
2021-10-19 22:35:00,,0823.8,4.99,0.00,29.7,29.0,00.0,38.8,31.4,13.9,0000.0,0001.78,0009.85,0000.53
2021-10-19 22:36:00,,0823.7,5.00,0.00,29.7,29.0,00.0,38.8,31.4,13.9,0000.0,0001.84,0009.93,0000.54
2021-10-19 22:37:00,,0823.8,5.00,0.00,29.7,29.0,00.0,38.8,31.5,13.9,0000.0,0001.88,0010.67,0000.55
2021-10-19 22:38:00,,0823.8,4.99,0.00,29.7,29.0,00.0,38.8,31.5,13.9,0000.0,0001.91,0009.96,0000.56
2021-10-19 22:39:00,,0823.8,5.00,0.00,29.7,29.1,00.0,38.8,31.5,13.9,0000.0,0001.91,0009.54,0000.57
2021-10-19 22:40:00,,0823.8,5.00,0.00,29.8,29.1,00.0,38.8,31.5,13.8,0000.0,0001.84,0009.44,0000.57
2021-10-19 22:41:00,,0823.8,5.00,0.00,29.7,29.1,00.0,38.8,31.4,13.9,0000.0,0001.85,0010.50,0000.57
2021-10-19 22:42:00,,0823.8,5.00,0.00,29.7,29.1,00.0,38.8,31.4,13.9,0000.0,0001.91,0010.26,0000.57
2021-10-19 22:43:00,,0823.8,5.00,0.00,29.7,29.0,00.0,38.8,31.4,13.9,0000.0,0001.95,0010.26,0000.58
2021-10-19 22:44:00,,0823.8,5.01,0.00,29.7,29.0,00.0,38.8,31.4,13.9,0000.0,0001.97,0010.36,0000.58
2021-10-19 22:45:00,,0823.8,4.99,0.00,29.7,29.0,00.0,38.8,31.4,13.9,0000.0,0002.00,0010.35,0000.58
2021-10-19 22:46:00,,0823.9,5.00,0.00,29.7,29.0,00.0,38.8,31.4,13.9,0000.0,0002.03,0010.56,0000.58
2021-10-19 22:47:00,,0824.0,5.01,0.00,29.7,29.0,00.0,38.8,31.4,13.8,0000.0,0002.03,0010.63,0000.58
2021-10-19 22:48:00,,0824.0,5.00,0.00,29.7,29.0,00.0,38.8,31.4,13.8,0000.0,0002.13,0010.38,0000.58
2021-10-19 22:49:00,,0824.0,5.00,0.00,29.7,29.0,00.0,38.8,31.4,13.8,0000.0,0002.14,0011.93,0000.57
2021-10-19 22:50:00,,0824.0,5.01,0.00,29.7,29.0,00.0,38.8,31.4,13.8,0000.0,0002.10,0013.70,0000.57
2021-10-19 22:51:00,,0824.0,4.99,0.00,29.7,29.0,00.0,38.8,31.4,13.8,0000.0,0002.12,0013.88,0000.56
2021-10-19 22:52:00,,0824.1,4.99,0.00,29.7,29.0,00.0,38.8,31.4,13.8,0000.0,0002.14,0012.96,0000.56
2021-10-19 22:53:00,,0824.1,5.01,0.00,29.7,29.0,00.0,38.8,31.5,13.8,0000.0,0002.08,0013.34,0000.55
2021-10-19 22:54:00,,0824.1,5.00,0.00,29.7,29.0,00.0,38.8,31.5,13.8,0000.0,0002.09,0013.50,0000.55
2021-10-19 22:55:00,,0824.1,5.00,0.00,29.7,29.0,00.0,38.8,31.5,13.7,0000.0,0002.18,0014.32,0000.55
2021-10-19 22:56:00,,0824.1,5.00,0.00,29.7,29.1,00.0,38.8,31.5,13.7,0000.0,0002.23,0014.87,0000.55
2021-10-19 22:57:00,,0824.1,4.99,0.00,29.8,29.1,00.0,38.8,31.5,13.6,0000.0,0002.11,0014.02,0000.55
2021-10-19 22:58:00,,0824.1,5.00,0.00,29.8,29.1,00.0,38.8,31.5,13.6,0000.0,0002.07,0014.05,0000.55
2021-10-19 22:59:00,,0824.1,4.99,0.00,29.8,29.1,00.0,38.9,31.5,13.6,0000.0,0002.01,0014.28,0000.55
